Theta_e
301 298 296 296 298 299 299 298 299 298 296 295 296 295 294 295 295 297 293 291 289 290 291 293 294 294 294 296 297 298 298 296 295 295 296 297 297 296 296 295 294 293 294 297 296 296 294 293 292 292 292 292 292 291 291 292 293 293 293 293 292 293 293 292 292 292 292 291 291 291 291 291 291 291 291 291 292 291 291 291 291 291 290 291 290 290
299 296 297 299 300 299 299 298 295 293 293 294 295 294 294 295 292 295 292 289 291 290 292 294 292 292 294 295 296 297 296 296 297 297 297 298 298 298 297 296 295 294 296 296 294 294 294 292 292 292 291 291 290 290 290 291 292 292 293 292 293 293 292 292 292 292 292 292 292 291 291 291 291 290 290 290 291 291 291 291 291 291 291 290 290 289
296 294 298 300 299 295 292 293 293 294 293 292 293 294 292 293 295 295 290 289 290 289 290 293 290 292 294 296 297 297 297 298 299 299 299 299 300 300 299 298 296 295 294 294 294 294 292 293 292 291 290 290 290 290 290 291 292 292 292 292 293 292 292 292 292 292 291 292 291 291 290 290 290 291 290 290 290 291 290 291 291 290 290 290 289 289
291 297 300 295 295 294 290 289 291 292 293 293 292 291 291 295 291 292 291 289 290 290 291 291 289 291 294 296 296 298 297 298 299 299 300 301 299 299 300 299 296 295 295 294 292 292 291 291 291 290 290 290 290 290 290 290 291 291 292 292 292 292 292 292 292 292 292 291 291 290 290 290 289 289 290 290 290 290 290 289 290 290 290 289 288 288
295 297 287 292 295 296 293 289 291 291 292 293 294 294 293 294 293 291 292 289 290 289 287 289 290 292 295 294 296 296 293 291 293 294 296 298 300 301 301 299 298 297 296 295 293 292 291 290 290 290 290 290 289 290 289 290 290 290 291 292 292 292 292 292 291 291 291 290 289 289 289 289 288 288 288 288 288 289 289 289 289 289 289 289 288 288
296 295 291 291 293 293 294 289 291 294 292 293 293 294 295 295 293 291 289 290 291 291 289 289 286 289 296 295 294 297 294 294 294 292 294 297 298 298 296 297 298 298 298 296 294 293 292 290 290 290 289 289 289 289 290 291 291 291 291 292 292 292 291 291 291 291 290 290 289 288 287 286 287 287 287 287 288 289 289 288 289 289 288 288 288 287
297 288 293 295 293 293 294 294 294 294 293 291 293 294 294 293 292 290 289 289 288 287 290 289 286 284 292 292 294 295 294 295 297 295 296 297 300 299 297 297 297 297 296 296 296 294 292 291 290 289 289 289 289 289 291 291 291 291 291 292 292 291 291 291 290 291 290 289 289 288 288 288 288 288 289 289 289 288 288 288 287 288 288 288 287 287
291 289 290 293 294 294 293 291 295 292 293 291 290 289 290 291 290 290 290 290 290 290 290 289 291 285 285 291 295 296 293 295 297 298 300 301 301 301 299 297 298 298 297 296 295 294 293 292 290 289 289 289 289 290 290 290 290 290 291 291 291 291 290 291 290 290 289 288 288 288 288 288 287 287 288 288 287 288 287 287 287 287 287 287 286 286
292 289 291 291 292 292 292 295 294 295 294 292 287 290 290 290 291 290 290 290 288 285 285 288 291 285 285 290 294 294 292 293 295 297 299 301 302 300 300 298 298 298 297 296 295 294 293 292 291 291 289 290 290 290 289 290 290 290 291 291 290 290 290 290 290 289 288 289 288 288 287 287 287 288 288 288 287 286 287 286 286 286 286 286 286 285
291 293 294 296 293 292 292 285 290 295 293 288 287 288 288 289 288 289 289 288 287 284 282 287 289 284 285 289 289 288 291 293 295 297 299 300 302 302 299 298 297 296 296 295 295 295 294 293 292 292 291 290 289 290 290 290 290 290 290 290 289 289 289 289 289 288 288 288 288 287 287 287 287 287 287 287 286 286 286 285 285 285 285 285 285 285
290 289 290 292 294 294 287 286 286 288 288 289 291 292 290 289 288 287 287 287 286 281 284 289 289 288 283 290 290 287 291 293 297 298 299 301 301 300 299 298 297 295 294 294 293 294 294 293 293 291 290 289 289 289 289 289 289 289 289 289 288 288 289 289 288 288 287 287 287 287 287 287 287 287 286 285 285 285 285 284 284 284 284 284 284 284
290 289 291 293 289 287 290 288 288 286 288 291 290 290 291 288 287 286 286 286 282 282 288 288 289 289 281 288 291 295 296 297 298 297 297 299 299 301 301 298 296 295 294 292 291 291 292 291 291 290 289 288 288 288 287 289 289 288 288 288 287 288 288 287 287 287 287 287 287 287 287 287 286 286 285 284 284 284 284 284 283 283 283 283 283 283
289 290 293 291 290 291 292 292 287 289 287 290 291 290 286 286 285 283 283 279 280 282 284 282 287 285 284 289 294 294 294 295 298 299 299 300 301 302 302 299 296 294 292 291 290 290 289 289 289 288 288 288 287 286 287 287 288 288 288 288 287 287 287 286 287 286 286 286 286 286 286 286 286 285 285 284 284 284 283 283 282 282 281 282 282 282
292 289 290 293 291 291 296 291 289 287 287 288 288 288 286 282 281 278 283 282 282 286 284 283 286 282 289 291 295 294 296 297 297 297 300 301 301 302 302 298 293 291 291 290 290 289 289 288 288 288 287 287 286 286 286 287 287 287 287 287 287 286 286 286 286 286 286 286 286 286 286 285 285 284 284 284 283 283 283 283 282 281 281 281 281 281
287 288 289 290 291 294 293 295 296 294 287 288 293 291 288 287 283 279 282 280 282 285 282 284 282 283 284 289 295 297 298 298 298 298 298 297 298 295 291 291 291 290 289 289 289 288 288 288 288 287 286 286 286 286 286 286 287 287 286 286 286 286 285 285 285 285 285 285 285 285 285 285 284 283 283 283 283 282 282 281 281 281 281 280 280 280
289 290 294 294 290 292 292 295 294 292 289 290 292 292 287 286 291 284 285 283 283 283 283 280 283 290 290 292 293 292 296 297 298 297 296 295 295 294 291 291 291 290 289 288 288 288 288 289 288 286 286 286 286 286 286 286 286 286 286 286 286 286 285 285 285 285 285 285 285 284 284 283 283 283 282 282 282 281 281 281 280 280 280 280 279 280
286 287 289 289 288 290 290 289 292 294 287 288 288 285 289 292 291 286 282 280 279 281 280 287 285 289 293 293 293 294 292 295 295 296 296 295 296 295 293 293 293 292 291 289 288 288 288 287 286 286 286 286 286 285 285 286 286 286 286 285 285 285 285 285 285 285 284 284 283 283 282 282 282 281 281 281 281 280 280 280 279 279 279 279 279 279
288 291 285 290 288 287 283 285 289 289 291 288 284 289 290 293 293 287 282 283 282 279 282 285 283 286 287 284 290 292 291 292 293 293 294 294 295 293 294 294 293 292 292 290 289 288 287 287 286 286 286 286 285 285 285 286 287 286 286 285 285 285 284 284 284 284 284 283 282 282 281 281 281 280 280 280 279 279 279 279 279 279 278 278 278 278
292 285 289 284 284 286 285 288 289 290 288 289 287 293 288 284 283 286 283 277 278 277 280 285 286 287 288 288 287 288 289 291 292 293 292 292 292 292 293 293 292 292 291 289 288 287 286 286 286 285 285 286 285 285 285 286 286 285 285 285 285 284 284 284 284 284 283 283 282 281 281 280 280 279 279 279 279 278 278 277 278 277 277 277 277 277
294 287 287 283 285 286 287 289 284 287 288 289 288 288 289 287 287 283 285 285 285 280 280 281 285 283 293 292 293 292 291 292 292 291 292 292 293 292 292 292 292 292 291 289 288 287 287 286 286 285 285 285 285 285 285 285 285 284 284 284 284 284 284 283 283 282 281 281 280 279 280 279 279 279 278 278 278 277 277 277 277 276 276 276 277 276
290 291 285 284 284 287 284 286 286 289 284 284 285 286 286 286 287 288 286 283 284 282 281 280 280 285 292 294 294 294 293 293 293 292 293 294 294 294 293 292 292 292 292 290 289 288 287 286 286 285 285 285 285 285 284 284 283 283 284 283 283 283 282 282 282 281 281 280 279 278 278 277 277 277 277 277 277 276 276 276 276 276 276 276 275 275
288 286 285 283 281 283 288 292 291 293 292 289 287 285 287 284 283 280 280 285 282 283 279 280 278 286 294 292 294 294 294 296 295 295 295 294 293 293 293 292 292 292 291 291 290 289 288 287 285 285 284 284 283 283 283 283 283 283 282 283 283 283 282 281 280 280 279 279 278 277 277 276 276 276 276 275 275 274 275 275 275 275 275 274 275 275
292 287 286 284 286 288 290 288 282 287 290 291 290 289 291 289 289 285 279 282 278 282 284 283 280 283 295 296 294 295 294 294 296 295 294 294 293 293 292 292 292 292 291 291 289 289 288 286 285 284 283 283 282 282 282 282 282 282 282 282 282 282 281 281 280 279 279 278 277 276 276 276 275 275 274 274 274 274 274 274 274 274 274 274 274 274
294 288 285 286 289 290 280 284 285 284 290 287 288 290 289 286 288 287 287 286 284 284 281 281 277 283 294 295 294 292 294 294 293 294 295 293 294 294 294 292 291 290 290 290 289 287 286 285 284 283 282 282 281 281 281 281 282 282 282 282 281 281 280 279 279 278 277 277 276 276 275 275 275 274 274 273 274 273 273 273 273 273 273 273 273 272
287 286 286 283 283 285 288 285 284 285 287 287 287 288 289 290 290 288 284 284 281 284 284 282 276 283 293 291 293 292 290 291 291 290 291 294 293 293 292 291 290 289 289 288 287 286 284 283 283 282 282 282 281 281 281 281 281 281 281 281 280 280 279 278 278 277 277 276 275 275 274 274 274 273 273 273 273 273 272 272 273 273 272 272 271 271
288 287 285 280 278 277 277 279 282 281 282 285 286 286 288 288 287 285 281 283 279 283 285 282 282 288 294 294 292 290 289 290 288 288 287 289 292 292 291 290 290 289 288 288 287 285 284 283 283 282 282 282 281 281 281 281 281 281 281 280 280 279 278 277 277 276 276 275 275 274 274 273 273 273 273 272 272 272 272 272 272 272 271 271 270 269
286 287 288 286 284 282 285 288 289 288 285 282 283 285 285 287 289 288 287 284 281 284 283 285 285 287 289 291 292 294 292 290 289 289 288 287 286 287 289 290 290 290 288 287 287 286 284 283 282 282 282 282 281 281 281 281 281 280 280 279 279 278 278 277 276 275 275 274 274 273 273 273 273 273 272 272 272 272 272 271 271 270 269 269 268 267
284 284 287 288 288 288 290 290 292 291 286 286 285 283 286 286 285 284 283 282 288 283 280 287 288 285 287 290 292 293 294 294 294 294 292 289 289 289 288 288 289 289 288 287 286 284 284 283 283 282 282 281 281 281 281 281 281 280 279 278 278 277 276 276 275 274 274 274 273 273 273 273 272 272 272 272 271 271 270 270 269 268 268 267 266 266
285 284 287 287 287 290 291 291 291 290 289 288 287 286 284 286 285 282 283 287 288 283 281 287 288 286 289 291 293 293 294 294 295 295 295 295 293 292 291 290 290 289 288 287 286 285 284 284 283 283 282 281 281 280 280 280 280 279 279 278 277 276 276 275 274 274 273 273 273 272 272 272 272 272 271 270 270 269 269 268 268 267 266 266 266 266
285 285 288 288 286 287 289 290 291 289 288 287 286 286 287 286 285 285 285 287 287 286 288 288 288 288 291 292 293 295 296 296 296 295 295 292 291 292 293 293 292 291 288 287 286 286 285 284 284 283 282 281 281 280 280 279 279 279 278 277 276 275 275 274 274 273 273 272 272 272 272 271 271 271 270 269 268 268 267 267 266 265 264 264 265 265
287 283 289 287 284 285 287 288 289 288 287 285 287 287 288 288 288 288 287 286 287 286 287 287 287 286 292 294 294 296 296 295 294 294 294 294 294 294 294 293 293 292 290 288 287 286 286 285 284 283 282 281 281 280 280 279 279 278 277 276 275 275 274 274 273 272 272 272 272 271 271 270 270 270 268 268 267 266 265 265 264 263 263 263 264 264
286 284 287 285 282 281 286 286 287 287 286 285 284 286 287 287 285 287 286 288 286 284 286 285 283 284 290 293 294 294 293 293 292 293 293 294 294 294 294 294 294 294 293 291 290 289 287 285 284 283 282 282 281 280 280 279 278 277 276 275 274 274 273 272 272 271 271 271 270 270 270 270 269 267 267 266 265 264 264 263 262 262 263 263 263 264
285 285 283 283 280 279 285 286 285 286 284 280 281 285 287 288 289 289 290 290 289 289 285 283 284 290 292 293 292 292 293 293 293 293 293 294 294 294 294 294 294 295 295 295 293 290 288 286 285 284 283 282 281 280 280 279 277 276 276 274 274 273 272 271 271 271 270 270 269 269 269 268 267 266 265 265 264 263 262 262 262 262 262 262 263 264
285 285 284 285 279 280 284 284 285 281 274 276 288 290 290 287 288 286 287 289 291 291 288 290 290 293 293 292 292 292 292 293 294 295 296 295 294 294 295 295 295 296 296 297 296 292 289 287 286 285 284 282 282 281 280 279 277 277 276 274 273 271 271 270 270 270 269 268 268 268 267 266 265 265 264 263 262 262 261 261 261 262 262 263 263 264
284 284 284 285 281 279 283 283 279 273 275 286 290 292 292 291 291 289 289 291 291 292 292 291 291 292 293 293 293 294 295 295 296 295 296 296 296 295 295 295 295 296 296 297 296 292 290 288 286 284 283 282 281 280 279 277 277 275 273 272 271 270 269 269 269 268 268 267 267 267 266 265 264 263 263 262 261 261 261 261 261 262 262 263 263 264
285 284 285 284 284 282 279 279 273 273 285 288 291 292 293 292 291 290 287 290 291 292 292 291 292 293 294 294 294 295 295 295 296 296 296 296 296 295 294 295 296 297 296 297 295 293 291 288 286 284 283 282 280 279 278 276 275 273 272 271 270 269 268 268 268 267 267 267 266 265 265 264 263 262 262 261 261 260 261 261 261 261 262 263 263 264
288 287 286 281 285 278 279 278 278 285 282 284 287 288 289 287 288 287 282 287 292 293 292 291 292 293 293 293 294 295 295 294 292 293 296 297 296 296 295 296 297 297 298 297 296 294 292 289 286 285 283 281 280 277 276 274 273 272 270 269 268 268 267 267 267 267 266 266 265 265 264 263 262 262 261 261 260 260 260 261 261 262 263 262 263 263
290 285 286 283 280 285 279 277 278 277 274 281 288 292 294 294 294 294 288 284 293 293 294 292 291 292 292 293 293 294 293 289 288 291 295 297 297 296 296 297 297 297 296 296 292 291 290 287 285 283 282 279 278 276 274 272 271 269 268 267 267 267 267 266 266 266 266 265 264 264 263 263 261 261 260 260 259 260 261 261 261 262 262 262 262 262
289 289 287 284 280 283 280 277 275 275 278 287 288 292 294 295 293 290 287 281 290 293 294 293 292 292 292 292 292 293 290 287 288 291 296 297 295 296 296 296 296 295 294 293 290 287 285 284 283 281 279 278 275 274 273 271 270 268 267 267 267 267 266 266 266 265 265 264 264 263 262 261 261 261 260 259 260 260 259 260 261 261 262 262 262 262
285 285 285 281 279 281 280 278 276 281 281 287 291 291 293 294 294 289 278 278 290 293 294 294 292 292 293 293 293 291 289 287 288 292 297 296 295 294 294 294 294 291 288 287 287 286 283 281 278 277 276 275 275 273 271 270 269 268 267 266 266 266 266 266 266 265 265 264 262 261 260 260 259 260 259 259 259 259 259 261 261 261 261 261 262 262
282 283 284 279 280 280 281 279 281 282 289 291 292 294 292 293 290 281 275 284 292 294 295 295 294 294 294 293 293 290 292 293 294 296 296 286 289 288 288 288 289 288 286 284 283 282 280 279 278 276 276 275 272 270 270 269 269 267 267 266 266 266 266 266 265 264 263 262 261 260 260 260 259 258 259 259 258 259 259 260 261 261 260 260 261 261
281 283 282 283 280 279 280 278 278 283 288 293 294 293 291 289 279 279 289 296 295 295 296 296 295 294 294 293 293 293 294 295 295 295 295 291 290 289 285 284 282 281 281 282 281 279 277 277 276 275 274 272 270 269 269 269 268 267 266 266 266 266 266 264 263 263 262 260 260 259 259 259 259 258 257 258 258 258 259 260 260 260 260 261 261 260
283 283 277 280 282 283 281 278 277 274 286 295 293 290 291 286 285 293 295 296 296 295 295 295 295 295 294 293 293 294 294 294 294 294 294 294 290 285 282 281 281 280 279 278 277 278 277 275 274 273 272 270 269 269 269 269 268 267 266 266 266 264 263 262 261 260 260 259 258 257 257 257 257 257 257 257 258 258 258 259 259 259 259 260 260 260
290 285 282 284 285 280 278 277 276 284 290 295 293 286 289 292 295 296 295 294 296 296 295 295 295 295 295 295 294 293 294 294 294 294 293 292 289 285 282 281 281 280 278 278 278 277 276 275 273 271 269 268 268 268 269 269 268 266 266 266 264 262 261 260 260 259 258 257 257 256 256 256 257 257 257 257 258 258 258 258 258 259 260 260 260 262
290 288 289 285 287 286 281 286 290 293 294 296 295 294 295 296 297 297 297 296 296 297 297 296 296 296 295 294 294 294 293 293 293 294 292 292 290 285 282 281 280 279 278 277 276 276 275 274 272 269 267 266 267 267 268 269 267 266 266 264 262 261 260 259 258 257 257 256 256 256 256 256 257 257 257 257 257 257 258 258 258 259 260 260 261 262
294 295 295 292 289 294 294 294 295 294 294 294 297 297 296 296 297 296 295 295 296 297 297 296 296 296 295 293 291 292 292 294 293 293 292 292 291 287 284 281 279 278 276 276 275 274 274 272 270 267 265 265 266 267 267 268 267 265 264 262 261 260 259 257 257 256 256 255 256 255 256 256 256 257 257 257 258 258 259 258 259 260 260 261 262 262
290 290 289 287 290 289 284 294 293 294 295 294 295 297 297 296 297 297 295 295 296 297 297 296 296 295 294 291 291 292 293 293 293 293 293 292 291 288 284 282 279 277 275 274 274 273 271 269 267 266 265 264 265 266 266 266 267 265 262 261 260 259 257 256 256 255 255 255 255 255 255 256 257 257 257 257 258 259 259 259 260 260 260 261 261 262
285 291 286 286 286 284 285 291 290 292 294 296 296 295 294 295 296 296 296 297 297 297 296 297 295 292 291 290 291 292 293 294 292 292 292 291 290 289 285 282 280 277 276 275 273 272 270 268 267 265 265 264 264 265 265 265 264 262 261 260 259 257 256 256 256 255 255 255 255 255 256 257 257 257 258 257 258 259 259 259 260 260 261 261 261 261
287 288 281 285 283 285 288 289 291 292 293 294 295 296 295 295 294 295 295 295 294 293 293 293 294 293 294 293 293 292 290 291 291 292 291 290 289 288 285 283 280 277 275 273 272 270 269 268 266 265 264 264 264 264 264 262 261 260 260 259 257 256 256 256 255 255 255 255 256 256 256 257 257 258 258 257 257 258 259 259 260 261 261 263 263 264
285 282 286 285 281 282 283 286 291 286 286 291 294 296 295 294 293 293 292 292 291 291 293 293 294 295 293 293 293 292 290 290 291 291 290 290 290 289 286 283 279 276 274 273 271 270 269 268 266 265 264 264 263 262 261 260 259 259 259 257 256 257 256 255 254 255 255 256 256 256 256 256 256 256 256 257 258 258 258 260 262 262 262 262 265 267
283 284 285 281 282 281 287 291 293 292 291 292 294 295 296 296 295 293 294 294 293 293 294 294 293 293 292 291 291 290 290 291 292 292 290 290 290 290 287 283 278 275 273 271 269 268 268 267 266 265 263 262 262 261 259 258 258 257 257 256 256 257 256 255 255 255 256 256 256 256 257 257 257 257 257 257 257 258 259 260 260 263 265 265 265 266
Wind_Speed
2 6 7 9 13 11 10 14 14 4 2 2 1 3 9 9 12 10 3 3 2 3 14 18 17 18 21 21 21 20 6 10 15 18 19 16 11 13 13 11 12 13 16 9 11 12 13 14 12 11 11 11 12 13 14 14 14 14 12 11 12 10 10 8 8 7 6 6 5 3 4 4 3 3 2 2 2 3 3 2 3 5 5 5 5 4
2 7 12 20 10 2 8 7 2 1 1 7 6 6 10 6 13 2 1 5 3 3 7 8 11 17 20 19 20 20 10 20 23 19 20 20 15 14 14 12 12 14 7 8 9 11 11 12 13 12 11 13 16 15 15 16 15 14 13 13 11 9 9 9 8 6 6 5 4 3 3 3 2 2 3 2 2 3 3 4 5 5 5 5 5 4
6 10 17 4 4 6 5 4 5 9 6 4 7 5 5 11 6 9 2 4 3 4 11 8 13 17 20 20 22 21 22 15 18 19 22 20 19 14 10 11 11 9 12 10 12 12 13 14 15 13 12 13 15 15 15 15 15 14 13 12 12 10 10 8 7 6 5 4 3 2 2 2 2 1 1 1 2 2 4 5 5 5 6 5 5 4
4 12 13 6 6 7 3 2 5 3 3 6 5 5 11 2 3 6 3 3 4 5 8 9 16 17 20 20 23 23 16 16 14 16 19 17 19 20 13 7 9 12 12 13 14 14 14 14 14 14 13 14 14 13 14 15 16 13 12 12 12 11 10 8 7 6 5 5 4 3 1 1 1 1 1 3 4 5 5 6 6 6 5 5 5 5
14 1 1 5 4 8 6 4 7 7 8 6 8 9 11 7 7 7 4 4 4 5 3 11 14 15 13 11 7 3 1 3 11 8 15 17 16 14 0 3 9 14 12 11 12 13 15 16 18 18 15 13 15 15 15 15 15 11 14 13 12 10 10 8 8 8 7 6 5 4 2 1 2 3 4 4 5 6 6 5 6 6 5 5 5 5
16 3 4 6 3 3 4 5 10 8 7 5 9 14 13 4 10 2 3 7 6 6 3 6 13 12 5 6 5 4 2 6 5 7 11 13 11 7 10 11 10 11 10 11 14 16 16 16 15 14 15 16 15 16 16 14 14 12 13 12 12 9 9 9 9 9 7 6 6 5 5 5 5 6 6 7 6 5 5 5 3 4 4 5 5 5
7 4 3 5 7 5 8 8 5 10 8 4 6 8 14 10 2 1 1 0 5 6 2 4 4 17 7 6 7 4 5 9 5 8 11 10 11 6 8 8 10 11 9 9 10 12 14 15 15 16 17 18 18 16 13 12 13 14 12 12 12 11 9 9 10 10 8 7 6 7 6 6 6 5 5 3 2 3 4 3 4 4 3 4 5 6
4 2 4 2 6 7 5 9 8 12 4 7 3 1 4 5 7 5 4 6 9 3 4 3 7 15 13 9 5 7 7 7 9 14 15 13 10 11 7 9 10 9 10 10 12 13 14 15 17 19 19 17 18 15 13 12 12 15 13 13 13 10 10 9 10 11 9 8 7 7 7 6 6 6 5 3 4 3 4 4 5 4 4 4 5 6
3 5 7 7 8 6 11 7 8 12 8 1 1 2 4 4 3 5 5 5 3 6 8 8 8 8 12 6 9 5 10 10 15 17 16 16 9 7 7 8 10 10 10 10 10 13 14 15 16 16 16 16 15 13 14 13 13 12 11 12 12 11 11 10 12 11 10 8 8 8 7 7 6 6 5 4 4 4 4 5 5 5 5 5 6 6
2 2 6 8 8 10 4 3 3 10 12 3 5 7 7 5 5 2 3 3 5 1 10 9 11 8 21 11 7 0 5 11 13 15 17 15 10 5 6 6 7 7 7 9 10 9 11 12 13 14 13 14 14 11 13 12 10 11 10 12 13 13 11 10 12 11 11 10 9 9 9 9 7 6 5 4 5 4 4 5 5 5 5 5 5 5
1 1 3 3 9 1 6 5 2 4 4 9 5 5 3 3 2 1 1 3 3 10 11 11 16 13 17 4 11 11 9 12 12 11 10 9 6 7 6 6 6 7 7 7 8 8 9 9 10 12 14 13 12 10 13 12 12 11 11 13 15 14 11 11 13 12 12 11 10 9 10 10 9 8 6 5 5 5 4 5 4 4 5 5 6 6
3 3 2 4 4 5 3 7 5 2 3 6 3 3 1 3 3 2 1 3 5 10 3 6 14 18 13 5 6 8 6 13 13 13 12 10 10 8 6 6 7 6 6 6 7 7 8 8 10 11 13 15 14 14 14 12 12 12 12 13 15 14 13 12 12 12 11 10 10 9 10 10 9 8 6 7 6 5 5 5 5 4 5 6 6 6
5 10 3 3 3 5 5 5 3 3 2 2 5 3 2 3 2 3 3 4 8 8 2 2 5 5 22 22 2 6 4 9 10 7 8 10 9 8 6 5 5 4 5 6 7 7 9 10 12 13 14 14 16 16 17 15 13 13 13 16 17 15 14 13 12 13 12 11 11 10 10 9 8 8 7 6 5 4 4 4 5 5 6 6 6 6
4 5 3 7 2 7 9 10 5 4 10 9 9 7 4 6 4 6 7 1 4 3 3 4 1 13 16 12 15 14 14 12 11 11 10 7 8 8 5 4 4 4 6 6 7 8 9 10 11 12 14 14 14 16 16 15 14 13 13 16 17 15 15 13 12 12 12 12 10 10 9 8 7 7 6 6 5 5 4 4 5 5 6 6 7 7
5 5 9 13 8 12 15 16 5 2 12 11 5 8 7 4 3 5 5 7 8 6 2 6 2 7 1 4 8 18 20 14 10 10 10 5 5 3 3 2 2 5 7 6 7 9 9 10 11 11 12 13 13 15 15 14 14 13 14 15 17 15 15 14 13 11 12 10 10 9 8 7 6 6 5 5 4 4 5 5 5 6 6 6 7 7
12 11 3 6 4 12 13 5 6 9 4 5 1 3 1 10 5 9 2 3 3 6 7 7 9 3 8 5 1 3 2 10 11 11 8 9 10 5 4 6 7 7 6 6 7 8 9 9 10 10 11 12 13 16 14 16 15 15 16 15 17 16 15 14 13 12 11 10 9 9 9 8 6 5 4 4 4 4 5 5 6 7 7 7 7 7
3 8 5 2 1 3 2 2 2 2 9 7 6 9 6 6 6 3 2 3 2 1 15 3 10 13 9 13 11 5 8 11 11 14 11 12 11 7 8 8 8 6 6 7 9 8 9 9 10 11 12 12 13 15 18 18 17 18 16 16 16 15 13 13 13 11 10 9 9 9 8 7 7 6 6 5 5 5 5 6 6 7 7 7 7 7
7 3 1 5 8 1 2 4 2 4 1 9 7 6 5 1 4 2 6 1 2 7 12 1 17 19 12 11 6 9 11 8 12 14 13 14 11 10 13 10 8 8 8 7 7 7 8 10 11 12 12 14 16 17 16 17 14 15 14 16 17 15 16 14 12 11 10 10 9 9 9 8 7 6 6 5 5 5 5 6 6 6 6 7 6 6
5 8 4 3 5 3 1 1 1 2 5 3 1 4 5 5 4 2 1 5 5 8 7 10 18 16 20 13 6 8 14 14 15 13 11 11 11 12 12 13 9 7 6 7 9 9 9 11 12 13 14 14 14 14 14 14 13 13 13 14 15 16 15 14 11 10 9 9 7 7 8 8 7 6 5 5 5 5 6 7 6 7 7 7 7 6
1 9 2 2 1 2 1 4 7 8 3 3 1 2 3 4 3 7 7 1 3 10 5 21 19 21 6 5 6 9 14 13 13 10 12 14 14 12 11 10 9 9 10 9 8 10 10 11 13 13 13 14 15 14 13 14 13 16 14 15 14 12 12 12 12 11 10 9 8 8 7 7 6 6 5 5 5 6 6 6 6 7 7 7 6 6
4 4 8 4 5 1 5 10 10 13 12 6 5 7 3 3 3 3 3 3 5 6 8 11 15 19 1 7 9 5 11 12 12 13 13 13 12 12 12 9 10 11 10 9 10 9 11 11 10 11 11 10 11 10 10 12 14 14 12 14 14 15 14 13 11 11 10 9 9 9 9 8 7 7 5 6 6 6 6 6 6 6 6 6 6 6
2 4 13 5 3 9 6 7 13 1 4 9 15 14 17 11 6 5 10 4 2 6 8 5 15 17 9 8 7 1 3 7 10 12 12 12 14 11 11 12 12 9 10 10 10 10 8 8 8 8 9 9 10 11 13 12 12 14 14 14 13 13 12 13 12 11 10 9 9 9 8 8 6 5 5 6 6 6 6 5 5 5 5 6 6 5
5 1 1 6 11 7 12 3 1 4 2 2 5 6 6 6 6 6 10 5 2 8 5 5 5 21 3 10 3 3 4 6 8 9 8 9 11 12 12 12 11 11 10 10 10 8 7 7 8 9 11 12 13 12 13 12 14 14 15 14 13 13 13 12 11 10 10 9 9 9 8 7 6 6 6 7 6 6 5 5 5 5 5 6 6 5
3 3 5 10 5 4 4 3 3 2 5 1 8 3 5 13 12 11 7 1 5 2 7 5 5 17 6 9 7 4 5 6 5 9 11 9 9 9 9 9 9 9 11 9 5 5 5 6 7 8 11 12 13 14 15 14 13 13 13 13 13 14 14 12 11 10 10 9 9 9 8 7 7 7 7 7 6 6 5 4 4 4 5 5 5 5
4 5 8 4 3 7 8 3 3 1 3 7 6 9 10 7 9 3 4 1 5 19 19 4 12 16 6 6 5 5 4 5 4 3 4 8 7 8 8 7 7 8 7 8 9 8 6 8 11 12 12 12 13 13 13 14 14 14 14 13 13 13 13 12 11 11 10 10 10 9 8 8 7 7 7 6 5 5 5 5 4 3 4 4 4 5
7 6 10 9 14 14 13 17 14 6 8 5 4 8 13 15 15 6 8 7 10 19 11 9 17 22 18 13 8 6 4 4 2 4 4 6 6 7 7 7 8 8 10 11 8 8 11 12 10 10 12 12 13 13 14 14 14 14 13 13 13 13 13 12 11 11 11 10 10 9 9 8 8 8 7 6 5 5 4 4 3 4 4 3 4 5
2 3 13 15 16 17 19 17 3 10 6 7 8 12 16 17 19 16 8 11 18 6 10 18 23 20 19 24 24 21 10 9 7 8 8 8 10 9 7 7 7 10 10 11 11 9 8 8 14 15 14 13 13 14 13 15 15 14 13 14 13 13 13 12 12 11 10 10 10 9 9 8 8 7 6 6 5 4 4 3 3 4 4 3 4 5
1 5 12 20 22 20 19 20 19 8 10 7 8 12 15 15 17 17 16 23 8 6 15 16 28 21 16 21 27 28 26 16 18 17 9 8 9 10 11 10 13 11 9 7 7 10 14 15 13 14 15 14 14 14 13 13 14 15 15 15 14 13 12 10 12 11 10 10 9 8 9 8 7 7 6 5 4 4 3 3 4 3 3 3 5 5
4 10 11 12 18 20 20 26 26 22 15 13 11 11 14 17 15 21 26 22 7 11 20 26 27 19 16 22 27 29 26 15 10 17 18 13 7 9 11 13 15 15 14 12 13 13 14 14 15 15 15 15 15 16 16 14 14 12 12 12 13 13 13 12 12 11 10 10 9 9 9 8 7 6 6 5 4 4 4 4 4 3 3 4 4 5
1 10 12 16 19 18 22 24 24 24 21 17 17 15 14 16 23 23 22 18 21 27 23 19 21 25 22 29 28 29 18 12 12 13 14 8 8 9 10 14 15 12 13 14 15 16 15 17 14 14 15 15 17 17 17 16 15 15 15 14 14 13 12 12 11 11 11 10 9 9 8 8 6 6 6 5 5 4 4 4 3 3 3 4 5 5
7 12 15 14 13 16 20 20 21 22 20 21 17 16 17 25 26 19 20 25 27 22 24 26 23 22 22 28 28 20 17 22 19 22 25 24 20 17 15 16 15 14 14 13 14 16 16 14 14 13 14 16 18 19 18 16 15 14 14 13 14 13 13 11 11 10 10 10 9 9 8 7 7 6 6 5 4 4 4 4 3 3 4 5 5 6
7 10 8 8 11 13 16 23 27 22 18 18 17 18 26 26 22 25 26 23 21 20 22 15 14 18 25 31 23 21 26 24 25 25 23 18 15 15 14 16 17 14 13 15 17 15 13 13 14 16 18 18 18 19 17 16 15 15 15 14 14 13 12 11 11 11 10 9 9 9 9 7 7 6 6 5 5 5 5 3 3 4 5 4 5 5
8 6 9 11 13 14 17 18 17 13 13 11 15 24 31 31 27 27 28 26 21 22 21 16 19 22 22 17 17 23 25 22 20 19 19 28 16 8 15 19 19 17 15 16 16 16 16 16 17 18 17 16 16 17 19 18 16 17 16 15 14 13 12 11 11 10 10 9 9 9 8 7 7 6 6 6 5 5 4 4 4 5 5 5 5 5
9 12 12 8 12 11 16 18 13 10 15 18 21 31 24 24 26 30 27 29 28 20 16 17 18 16 20 23 26 27 23 21 19 20 22 19 9 8 15 16 21 22 21 18 15 14 14 13 12 13 16 17 17 17 16 17 17 15 14 14 13 13 12 12 10 10 10 9 9 9 8 8 7 7 6 5 5 5 4 4 5 4 4 4 4 4
12 12 13 9 11 11 12 8 9 15 19 20 18 8 16 28 32 32 35 29 27 23 22 21 23 27 28 28 29 28 20 17 18 20 26 25 14 12 19 23 25 23 22 23 14 10 12 13 13 11 11 12 15 15 14 13 12 12 12 12 13 11 12 10 11 10 10 10 9 8 8 8 7 7 6 6 6 5 4 5 4 4 4 3 4 4
13 14 9 10 10 5 4 9 11 16 6 2 9 17 21 25 22 27 31 32 31 24 23 23 26 28 27 30 30 22 20 15 14 19 25 24 19 19 17 21 20 23 21 16 10 12 12 11 14 15 16 12 13 13 14 14 13 14 13 11 12 10 9 11 10 10 10 10 10 9 8 8 8 7 6 6 6 5 4 4 4 4 3 3 3 3
21 15 8 11 10 13 10 15 23 3 5 6 8 14 18 17 23 25 24 12 9 11 16 21 27 26 27 29 27 25 19 8 10 18 26 25 18 16 19 23 24 23 19 14 10 11 11 10 10 11 10 11 13 13 14 12 13 13 13 12 9 11 10 10 10 11 10 10 10 9 9 8 8 7 7 6 6 5 4 4 3 3 3 3 3 3
20 19 13 16 10 14 15 11 9 8 16 14 17 19 20 24 23 6 6 12 8 18 22 23 23 23 27 26 26 25 3 3 11 18 25 27 9 18 19 20 19 17 13 10 1 1 3 5 6 8 11 13 13 13 11 12 13 12 11 11 11 11 11 10 10 11 10 10 10 9 8 8 8 7 7 6 6 5 4 3 3 3 2 2 2 3
21 21 19 18 11 9 13 11 11 14 17 12 21 24 27 23 6 7 3 11 7 23 26 26 25 25 24 25 26 18 1 10 16 18 22 22 10 15 14 16 14 12 10 8 8 6 7 7 10 11 11 13 14 13 14 15 14 13 12 12 13 11 12 11 10 11 11 10 10 9 8 7 7 7 7 6 5 4 4 3 3 3 2 1 1 3
20 14 12 14 16 13 15 13 15 8 13 13 17 19 26 19 5 3 12 13 20 29 29 27 27 25 24 25 23 15 11 14 17 19 23 14 3 13 14 14 12 10 7 5 6 8 10 12 13 12 13 15 16 15 16 15 14 13 11 11 11 12 11 11 11 10 9 10 10 8 8 7 7 7 7 6 5 4 4 3 3 2 1 1 1 2
15 13 16 16 14 18 24 14 11 9 5 7 18 20 3 13 13 11 21 13 21 26 24 23 24 22 22 23 17 14 17 20 22 23 14 2 3 4 5 3 3 4 8 8 8 10 11 11 13 14 15 11 13 14 13 12 13 14 11 12 12 12 11 11 11 11 11 9 9 9 8 7 8 8 6 6 6 5 4 2 2 2 1 0 1 2
9 10 10 16 17 14 15 18 16 14 8 9 16 13 13 8 9 19 17 21 24 21 19 18 18 19 18 18 17 17 18 20 20 15 16 14 13 7 7 6 4 4 4 3 8 11 9 10 10 11 10 11 14 13 12 14 15 12 12 12 12 11 10 11 11 11 10 10 9 9 8 8 7 6 5 6 5 5 4 3 2 1 1 0 1 3
10 11 11 14 8 14 8 12 8 13 6 22 17 6 13 15 19 15 21 18 18 19 18 16 15 18 16 14 16 17 17 18 16 17 18 16 12 11 10 9 10 10 10 10 10 9 13 12 14 14 14 12 13 13 14 16 19 14 11 11 11 10 11 10 10 10 10 10 9 9 10 9 8 6 5 5 5 5 4 4 3 2 2 1 1 3
13 14 5 10 12 12 16 13 12 15 18 21 17 15 15 26 20 23 20 22 18 16 15 16 17 19 19 18 16 16 16 16 17 17 14 12 11 8 7 7 6 6 7 6 8 15 16 10 11 15 13 11 10 11 12 19 23 11 11 11 10 10 9 10 10 10 10 9 9 10 9 8 8 7 5 5 5 5 4 3 3 2 2 2 1 2
13 18 16 13 14 15 11 14 16 15 16 16 22 19 22 26 27 28 25 21 17 16 16 15 17 17 17 18 17 14 14 16 19 16 13 16 14 12 13 13 12 14 12 12 14 12 13 16 18 14 11 11 12 9 9 10 20 18 16 9 10 11 10 10 10 10 9 10 10 10 9 8 6 6 5 5 5 5 4 4 3 3 3 2 1 2
10 20 20 20 15 15 17 12 8 15 16 18 20 23 26 24 20 19 21 19 17 17 13 14 14 15 13 12 12 14 16 17 16 14 14 14 13 10 9 8 9 9 10 7 7 13 14 13 15 15 15 11 11 11 11 10 10 24 12 10 9 10 9 10 10 10 10 9 10 10 10 9 8 6 5 5 4 4 4 4 3 3 3 2 1 2
7 9 9 10 13 15 14 10 22 18 18 19 17 19 19 18 17 15 17 19 21 21 20 17 17 14 9 5 12 14 15 15 16 16 15 13 11 12 13 16 15 16 18 19 13 15 16 18 14 15 17 17 13 10 10 17 9 9 12 13 12 11 11 10 11 10 10 10 10 8 8 9 7 6 5 4 4 4 4 3 3 3 3 2 0 3
6 3 10 6 12 10 12 13 19 18 21 18 12 13 13 16 19 18 17 17 18 19 20 20 14 6 2 6 11 14 16 16 15 15 14 13 14 13 13 14 15 14 11 11 14 18 14 15 17 17 17 15 15 11 12 14 15 10 11 11 12 11 11 10 10 10 10 11 8 7 7 6 8 7 5 4 4 4 4 4 3 3 4 2 1 3
10 11 13 7 14 16 19 19 18 20 20 21 21 14 10 11 11 12 13 14 13 14 15 15 13 13 12 13 13 13 12 14 14 14 14 10 11 10 12 15 15 18 16 16 17 23 21 17 16 18 19 15 13 13 13 13 10 10 10 10 10 12 12 10 10 9 10 9 6 7 6 6 6 5 5 5 4 3 3 3 4 4 3 2 3 4
13 13 12 14 15 15 14 16 12 12 12 14 12 11 8 10 13 12 13 16 13 15 17 18 21 20 16 15 15 13 12 14 17 14 13 13 14 15 13 11 12 15 17 12 13 16 17 15 24 20 18 14 12 11 12 11 10 10 9 10 10 11 11 11 10 10 8 6 6 6 6 5 5 4 4 4 4 4 3 4 6 4 4 1 3 6
15 15 12 13 13 17 12 14 9 12 14 15 17 16 14 10 9 12 15 17 17 18 18 18 18 17 14 13 12 14 15 18 21 19 15 12 14 13 13 14 14 17 19 18 18 15 22 19 18 15 17 14 13 12 12 12 11 11 10 11 11 10 10 12 10 7 7 7 6 6 6 6 6 5 4 4 4 3 3 3 2 2 5 3 3 6
Wind_Direction
3 210 224 228 236 216 203 212 232 293 333 29 169 236 253 256 266 270 133 113 160 259 247 252 253 259 265 268 273 272 214 245 246 253 256 254 240 235 230 214 205 214 227 209 200 187 183 181 183 184 180 181 180 184 184 184 186 189 184 179 182 179 178 178 176 181 181 180 178 177 196 187 163 178 176 215 215 220 233 238 258 258 253 253 266 278
217 233 241 239 241 143 223 209 174 167 194 236 255 246 261 220 260 271 92 125 169 223 269 240 259 259 262 266 267 271 227 245 257 256 260 260 248 241 228 215 206 221 214 174 189 189 176 182 184 183 183 181 184 191 187 189 188 189 185 185 182 179 181 189 186 177 182 186 188 185 172 178 175 187 206 213 200 212 225 246 249 254 254 253 267 280
202 225 243 250 91 94 72 168 196 214 204 193 237 247 274 261 280 277 66 129 156 201 264 270 277 271 266 263 261 258 253 244 248 250 260 266 269 257 225 212 213 205 216 202 208 190 190 185 185 186 190 192 193 186 188 188 187 188 186 188 185 182 182 186 180 173 181 169 152 171 149 179 180 223 281 283 276 265 250 246 247 252 256 259 268 273
246 242 260 95 130 131 87 134 179 186 213 208 197 224 237 261 330 280 111 98 179 221 298 309 292 278 265 254 253 255 257 262 254 256 256 257 257 258 255 206 193 217 218 209 196 196 192 189 187 189 192 191 188 186 187 189 190 187 188 189 186 182 183 179 175 173 159 152 138 143 127 126 265 283 266 264 261 251 243 243 242 244 249 258 267 269
228 46 55 106 135 201 194 157 186 198 224 209 224 230 253 237 228 227 308 299 199 238 278 281 267 259 232 242 254 244 6 278 269 261 262 261 251 254 82 188 208 227 213 201 194 195 192 192 195 195 190 183 189 190 189 189 188 185 188 186 183 180 182 178 169 170 162 149 156 156 154 202 232 248 249 243 237 225 224 231 227 230 235 254 263 267
254 191 143 97 135 165 153 196 211 203 239 214 225 230 241 261 261 200 21 338 292 279 144 342 326 285 165 193 230 265 286 262 232 224 241 252 258 229 234 226 223 231 215 201 195 194 193 196 194 191 189 190 194 196 194 187 188 181 185 183 180 179 180 177 171 172 171 175 182 180 191 202 209 219 207 216 223 206 211 222 220 234 237 250 260 262
257 47 208 177 151 184 210 232 195 189 226 219 245 205 234 245 270 21 260 70 264 265 77 306 349 291 141 194 181 203 233 257 238 221 246 223 255 210 214 198 217 217 205 211 210 194 193 194 190 193 193 196 195 200 184 181 186 186 184 178 179 180 178 175 173 173 174 178 188 197 206 218 221 227 223 228 239 240 249 258 258 262 253 256 266 268
130 115 107 159 172 190 217 241 193 183 194 238 62 113 135 188 207 208 210 229 269 34 273 175 233 276 279 218 168 191 210 241 267 270 271 266 231 244 207 200 214 207 200 195 204 201 197 191 191 197 198 194 199 188 179 180 185 187 184 177 181 180 178 172 173 175 180 184 189 193 205 215 225 228 236 214 239 256 270 268 277 289 287 282 269 276
153 143 177 155 193 191 223 228 116 182 193 271 72 14 107 122 168 162 210 255 295 336 284 184 202 271 259 183 196 185 217 228 251 253 257 261 241 222 232 212 209 205 200 197 196 199 197 195 198 198 196 198 190 183 178 182 184 182 181 179 180 182 178 176 177 177 183 188 188 193 199 211 221 226 234 231 234 256 259 271 279 279 286 282 272 269
305 181 198 181 160 215 163 36 206 176 211 103 129 88 86 85 72 184 226 253 264 289 257 189 175 244 278 146 166 305 201 230 236 242 245 249 254 224 224 210 204 197 199 204 208 199 198 199 197 197 194 186 187 180 177 179 175 179 176 181 181 184 181 177 179 180 183 188 188 196 201 206 210 212 218 219 229 232 247 264 270 274 274 272 274 267
83 228 351 211 215 209 101 60 65 14 48 126 159 113 92 82 131 118 87 264 287 243 243 205 182 206 279 182 158 155 193 201 222 235 251 262 264 244 209 202 189 192 190 191 197 197 198 194 192 183 190 186 179 169 176 180 181 179 180 183 185 185 180 177 181 182 185 186 191 198 200 201 208 209 215 221 222 224 233 249 260 264 272 277 278 278
156 117 218 238 63 99 97 93 55 58 118 161 151 171 193 193 145 172 192 185 235 264 116 199 193 197 235 254 157 163 136 190 199 222 231 239 239 233 191 196 189 182 171 178 183 186 187 183 187 184 191 187 183 176 185 184 180 181 183 182 184 183 182 178 180 182 185 185 192 198 198 202 205 204 206 218 227 227 239 254 269 273 278 278 277 275
236 206 151 89 262 153 164 117 90 109 177 207 158 155 216 260 9 240 155 220 197 248 128 114 138 255 234 245 135 190 201 222 235 225 215 223 234 222 192 183 161 159 153 185 179 177 186 188 187 190 192 185 183 186 186 185 181 182 184 184 183 184 181 179 178 183 186 186 191 194 197 201 200 203 208 217 226 225 234 243 254 263 269 274 272 268
256 65 154 186 104 228 179 191 160 213 192 186 188 182 192 252 222 260 245 186 292 236 134 112 148 248 269 284 228 219 210 216 214 232 245 234 226 220 169 156 148 166 189 192 183 187 191 189 189 188 188 188 186 185 185 183 182 183 185 185 187 183 178 176 179 183 184 190 190 190 191 194 194 197 203 213 217 220 228 236 248 252 259 269 270 277
272 245 196 147 228 155 194 214 196 120 153 197 178 177 221 187 201 248 258 260 272 301 134 233 107 242 13 208 188 210 216 209 205 219 234 255 283 33 36 40 186 197 204 194 192 199 195 191 187 185 188 190 189 186 183 184 185 182 186 185 186 178 177 177 179 180 186 187 187 185 188 187 186 191 196 207 213 217 225 237 245 254 258 260 268 274
227 257 70 167 357 146 189 192 86 106 104 159 184 27 276 228 188 247 310 299 316 320 285 156 221 240 225 88 189 59 54 225 215 225 211 232 239 207 236 223 215 211 201 196 209 209 205 193 187 188 191 194 190 188 186 186 183 185 189 185 186 180 173 176 177 182 183 182 180 181 180 181 181 185 192 205 209 219 223 237 247 255 256 259 266 271
50 251 112 138 73 203 64 17 190 188 216 160 143 207 203 14 199 258 59 113 83 198 264 177 261 258 259 244 152 194 166 209 208 224 212 223 227 186 235 236 223 220 205 201 211 211 199 191 196 196 193 193 192 190 193 190 187 187 181 179 182 178 172 177 179 177 178 175 171 175 174 175 180 188 197 203 209 218 232 240 245 249 254 262 262 264
228 246 142 162 206 69 0 326 1 19 322 111 221 203 83 0 355 178 249 152 225 248 271 354 270 288 281 291 124 163 201 191 216 222 213 223 213 204 232 233 220 221 219 216 219 217 204 199 200 199 199 198 197 197 194 190 183 183 182 179 177 175 175 177 173 174 173 170 170 169 172 177 180 186 195 206 215 223 230 234 239 246 250 253 261 267
133 275 182 357 40 69 25 229 157 62 11 317 355 332 193 190 191 169 53 248 241 238 270 263 274 272 258 257 130 170 199 214 223 222 215 228 222 223 233 238 231 231 228 220 218 212 207 205 204 200 201 198 199 196 193 185 175 178 181 182 181 180 176 168 166 169 166 165 164 167 171 173 175 183 192 203 212 224 232 234 240 245 255 262 261 263
216 228 231 336 59 90 156 183 209 180 188 113 248 218 350 321 199 164 204 246 225 266 282 274 284 269 284 196 164 204 191 204 210 211 214 216 215 214 223 224 217 219 220 216 211 212 210 208 204 200 197 194 194 190 185 178 175 184 181 175 178 171 165 163 166 164 162 163 162 160 158 167 172 179 192 202 210 223 230 237 244 251 256 257 267 269
222 93 254 86 288 148 208 191 216 179 176 192 213 204 170 210 355 339 338 202 220 246 234 270 278 272 4 125 137 207 186 203 194 208 217 217 218 220 222 218 222 227 221 221 218 215 213 207 201 199 195 191 187 184 176 178 182 181 176 176 175 169 166 167 166 164 163 159 163 160 166 170 170 182 190 202 216 227 235 240 245 250 257 272 271 276
152 169 228 149 188 218 257 166 218 8 213 188 180 192 187 160 189 193 247 117 232 212 236 219 254 269 270 98 94 114 185 188 199 205 210 207 219 220 225 224 223 226 226 224 222 217 211 202 194 188 183 180 175 180 182 181 177 180 180 177 170 169 169 167 165 166 159 159 161 163 166 167 169 178 193 204 212 226 229 238 245 250 267 269 274 279
186 125 259 216 224 222 244 148 85 134 328 267 238 252 189 221 167 190 237 202 47 249 280 256 302 268 180 52 116 179 180 189 191 203 206 200 214 215 215 218 219 216 219 217 217 215 210 193 190 187 186 187 187 185 182 180 183 182 177 170 170 168 168 165 162 159 158 158 160 163 162 165 173 180 195 205 215 219 226 239 248 254 264 271 277 287
92 188 201 246 297 294 64 70 90 175 169 130 237 241 171 211 197 208 231 81 235 180 229 205 212 265 281 84 283 193 187 162 198 180 189 203 218 218 216 214 218 219 232 233 221 214 204 187 179 182 188 187 188 186 187 185 182 178 174 171 166 169 161 159 157 158 158 159 159 158 160 168 175 186 196 204 211 212 226 239 247 257 263 271 282 293
161 207 214 220 251 279 253 129 151 36 188 220 204 191 207 212 208 246 35 78 255 239 237 183 243 256 266 131 238 185 132 235 204 244 250 215 218 220 221 224 221 225 234 228 220 210 197 192 196 199 194 193 191 189 186 183 183 176 173 168 167 165 160 157 158 158 161 161 157 161 167 172 179 188 196 203 206 215 227 238 245 255 264 274 284 290
198 165 178 203 218 229 232 232 229 178 204 205 248 186 195 203 202 166 233 209 236 244 217 226 253 250 275 278 231 167 205 225 232 246 242 254 243 229 225 224 223 216 224 223 209 194 208 208 205 198 196 194 192 188 185 183 180 175 169 169 165 160 159 159 158 162 159 161 161 163 170 175 182 189 193 197 207 214 221 230 243 249 263 277 285 291
210 219 197 211 218 225 234 249 291 99 112 192 198 184 199 206 206 204 218 222 228 234 215 233 243 265 267 274 275 268 218 200 216 201 226 221 226 236 243 240 228 220 214 213 206 207 208 206 209 206 199 196 190 186 184 182 178 173 168 166 166 162 160 159 160 162 161 161 162 162 172 176 181 182 187 193 200 201 212 224 239 254 261 277 282 280
104 217 220 223 228 235 245 254 254 174 199 193 184 203 204 199 208 210 213 233 193 54 255 243 248 253 261 274 276 273 268 246 255 265 234 208 212 205 214 223 235 240 236 224 216 210 213 213 208 205 202 193 191 184 184 184 179 174 170 167 164 162 159 160 161 160 160 158 162 166 170 174 177 178 183 185 188 200 214 227 237 248 261 270 273 271
191 228 225 242 243 247 248 254 256 253 236 229 208 183 203 208 210 216 228 236 185 228 243 250 258 267 260 258 261 264 263 262 265 268 267 263 214 200 216 230 234 227 225 217 218 216 217 212 207 204 197 194 184 185 183 179 176 170 168 164 163 162 162 159 159 159 159 159 163 168 167 167 172 172 173 182 186 200 203 219 238 246 263 266 265 269
168 245 248 238 250 247 249 250 253 257 256 249 239 230 220 216 219 218 235 233 222 233 241 258 262 265 268 263 258 256 268 279 275 274 270 190 185 191 221 237 235 220 215 215 216 219 217 214 205 198 193 187 187 184 181 181 178 176 171 168 165 162 160 157 160 156 158 162 165 162 163 166 166 168 171 177 189 194 203 220 232 238 251 257 261 267
197 240 231 243 251 247 252 255 257 254 255 256 253 254 255 252 250 238 237 240 240 245 250 250 255 262 259 258 255 266 282 279 277 272 271 273 265 253 248 249 242 228 223 211 215 218 216 210 205 198 190 193 187 185 184 181 176 171 167 164 162 161 159 157 155 156 158 160 160 158 159 165 166 168 174 178 182 190 206 220 220 241 252 254 256 261
191 246 243 250 250 247 246 247 247 249 254 258 264 260 253 252 250 242 242 236 240 247 247 244 248 247 248 249 260 271 266 265 266 267 270 266 252 255 257 259 261 255 219 217 222 216 209 205 203 201 199 195 188 183 180 174 171 169 171 163 162 157 154 155 155 155 156 154 155 160 164 165 162 167 176 174 189 194 205 215 223 239 244 253 258 262
186 215 222 230 240 241 240 242 249 248 253 246 236 238 240 241 244 253 253 254 247 244 252 247 238 234 250 268 273 262 259 256 259 265 265 266 259 249 256 259 262 259 251 249 227 212 208 203 204 201 198 189 184 183 184 170 164 174 168 162 158 145 153 154 153 151 151 153 158 161 163 161 164 170 176 183 183 197 203 206 226 234 241 248 255 262
199 211 227 208 241 235 237 245 244 241 230 225 221 227 232 245 245 246 246 246 245 232 238 241 261 269 270 264 256 254 258 261 264 264 265 266 283 262 261 255 260 264 266 262 244 219 199 204 202 199 193 186 184 182 172 167 169 165 154 146 142 148 151 149 149 150 152 156 162 161 158 164 165 173 176 176 187 198 200 206 225 233 246 252 253 255
209 215 231 216 239 238 237 245 251 229 232 229 233 242 240 241 245 251 255 255 257 251 251 254 254 255 254 254 258 263 267 267 269 274 272 271 266 252 260 267 267 265 267 270 256 210 209 201 197 185 177 177 170 159 152 158 153 137 135 142 144 148 146 150 146 151 155 159 162 159 162 166 167 172 172 179 189 195 198 210 225 235 243 241 247 260
219 218 222 224 223 242 186 205 239 245 252 222 180 220 233 244 249 258 260 252 251 254 260 257 256 257 256 260 265 270 266 275 281 269 266 268 258 254 259 263 266 268 268 267 246 224 205 194 191 188 189 166 147 157 158 158 145 140 144 142 143 143 146 148 150 154 158 160 163 164 166 165 168 170 173 181 186 188 199 207 216 231 245 248 256 267
219 227 214 247 205 234 220 211 230 276 7 161 189 216 216 217 225 224 244 243 241 244 240 247 249 252 260 264 270 271 276 284 270 275 271 263 252 244 242 252 257 264 269 275 255 235 212 189 185 179 148 148 154 148 158 141 137 138 137 145 144 144 148 150 154 162 163 164 162 164 166 166 166 167 173 179 182 182 195 200 213 232 226 246 270 280
210 220 203 227 220 211 235 236 241 231 242 220 213 231 234 233 245 267 218 258 220 250 239 238 244 250 256 262 265 267 30 324 269 267 269 272 221 221 229 242 251 257 263 267 36 358 168 166 129 126 147 148 151 152 134 134 139 136 140 144 148 152 154 158 165 163 161 163 161 161 160 163 162 166 173 177 176 174 190 190 221 218 222 243 289 303
217 216 221 222 230 213 232 235 227 231 237 198 227 230 238 241 110 92 274 254 193 240 246 247 249 248 250 254 258 259 168 261 264 263 269 271 189 206 219 233 235 233 237 214 192 166 150 143 141 135 134 144 149 152 142 145 141 142 148 151 156 157 158 168 164 164 162 159 154 156 154 155 161 167 172 173 166 173 183 194 204 218 223 234 277 286
219 213 213 228 230 220 233 231 240 209 248 202 221 231 239 244 135 108 255 250 239 242 243 247 249 248 248 250 251 252 231 243 252 257 257 275 240 194 201 216 211 203 198 168 168 158 136 126 121 139 152 162 164 149 150 147 151 151 147 154 153 159 166 167 163 154 146 143 146 148 151 157 164 170 171 161 160 171 185 187 202 209 217 279 269 292
211 215 217 224 217 224 224 243 249 249 235 177 216 232 191 132 148 200 229 230 233 238 239 239 244 243 241 244 242 242 229 230 236 245 263 117 182 208 234 282 252 165 171 165 161 131 137 149 154 162 168 159 143 145 148 148 146 158 155 154 159 168 163 149 142 142 144 143 144 147 151 154 168 172 165 152 159 167 174 187 193 209 202 222 296 306
220 202 226 216 221 217 218 229 230 238 216 190 231 206 146 135 204 221 232 232 242 243 241 236 242 242 241 234 234 234 239 238 243 249 254 246 239 224 153 167 124 99 82 115 142 145 137 141 138 135 133 142 147 148 153 156 158 153 153 158 168 158 138 135 140 140 141 144 144 143 147 157 163 167 155 154 161 163 167 170 189 213 156 114 321 307
168 199 193 199 212 234 229 241 237 239 143 198 218 185 186 209 227 225 242 241 243 243 246 247 238 244 236 236 230 235 240 246 244 238 237 240 228 207 181 169 178 168 165 154 164 173 147 152 160 165 156 151 150 155 162 158 154 154 155 161 146 129 133 136 136 137 139 137 138 142 153 158 163 161 151 158 167 161 159 167 173 173 150 133 329 317
181 229 190 213 174 219 215 203 216 215 219 199 185 204 189 215 222 231 235 247 236 241 240 245 239 239 238 238 239 237 239 245 246 244 241 239 225 201 177 188 169 157 164 205 181 167 163 146 139 124 124 137 142 153 162 165 153 148 147 147 124 128 127 130 134 135 131 133 137 145 153 158 157 148 151 163 163 160 152 155 165 160 130 80 17 335
159 225 217 225 187 206 208 214 216 214 220 198 202 215 215 213 218 228 234 238 240 234 233 243 245 241 236 238 240 246 249 239 243 238 229 230 222 200 192 193 183 182 180 174 181 172 169 157 158 140 137 151 150 150 148 161 144 147 142 134 132 141 138 135 135 133 133 139 146 150 153 154 153 146 154 168 171 164 153 161 163 136 114 92 37 338
235 231 241 244 241 220 238 220 228 228 232 227 215 221 230 233 227 235 244 252 249 256 250 250 248 246 240 222 227 233 237 243 241 242 237 236 228 204 183 162 185 167 145 138 156 178 162 111 113 134 139 146 154 150 149 154 152 144 139 131 135 138 136 133 133 133 137 139 147 153 152 145 141 143 161 174 170 161 146 144 151 118 107 88 40 319
294 337 312 285 309 281 254 202 237 244 235 233 233 234 237 243 246 236 238 240 251 255 257 252 250 250 239 193 212 227 236 238 242 241 239 238 229 209 191 197 188 174 172 179 176 149 149 150 149 155 153 152 162 152 149 144 154 133 136 147 146 142 140 136 137 133 139 145 147 152 155 146 146 148 166 182 167 155 140 150 142 123 107 107 5 306
274 29 314 298 309 278 292 325 316 310 297 296 275 263 256 249 246 247 251 250 252 255 258 263 266 264 195 210 212 228 238 240 239 242 241 230 228 217 209 202 190 176 190 153 152 163 144 159 158 159 156 157 161 157 152 152 145 146 143 144 142 137 133 133 139 141 144 149 150 154 157 148 147 154 158 167 162 147 146 150 151 129 126 128 221 288
301 331 275 295 280 284 286 278 275 289 295 292 291 288 298 314 325 313 303 301 304 303 300 298 295 286 279 259 243 239 247 249 244 240 238 233 231 222 215 210 198 182 154 163 176 167 175 169 162 161 162 158 155 154 154 140 131 134 139 132 129 139 135 130 125 122 135 145 142 147 152 145 156 172 158 149 136 131 144 148 151 141 137 190 214 268
291 263 277 290 277 271 261 284 306 295 287 286 287 304 287 269 269 278 290 283 292 293 284 280 279 273 266 268 271 263 254 255 255 250 240 236 231 227 219 205 193 170 182 179 154 169 145 154 153 160 160 150 149 139 131 126 127 135 135 135 142 146 134 133 132 134 145 151 148 142 146 144 153 158 153 140 133 129 133 186 194 179 146 177 312 328
246 258 267 255 254 267 283 276 276 280 282 275 284 285 288 291 272 267 262 266 263 256 264 269 269 271 266 256 246 248 251 254 257 255 247 238 241 234 216 197 181 177 171 154 158 170 173 172 161 148 146 151 147 139 138 136 143 140 142 147 150 150 140 138 137 136 143 149 149 155 149 152 151 161 144 137 130 121 117 107 83 153 196 213 335 337